Alexandria, LA

7:04 PM CDT on July 27, 2017 (GMT -0500)
Alexandria International

Weather History for KAEX - January, 2003

Change the Weather History Date:

Friday, January 24, 2003

  Actual Average Record
Temperature  
Mean Temperature 29 °F 49 °F  
Max Temperature 39 °F 60 °F 81 °F (1950)
Min Temperature 19 °F 38 °F 4 °F (1948)
Degree Days  
Heating Degree Days 36 16  
Month to date heating degree days 384  
Since 1 July heating degree days 1173  
Moisture  
Dew Point 14 °F    
Average Humidity 54    
Maximum Humidity 76    
Minimum Humidity 37    
Precipitation  
Precipitation 0.00 in 0.18 in 4.80 in (1920)
Month to date precipitation 3.83  
Year to date precipitation 3.83  
Snow  
Snow 0.00 in - T in (1960)
Month to date snowfall  
Since 1 July snowfall  
Snow Depth -    
Sea Level Pressure  
Sea Level Pressure 30.58 in    
Wind  
Wind Speed 6 mph (NE)    
Max Wind Speed 9 mph    
Max Gust Speed -    
Visibility 10 miles    
Events      
T = Trace of Precipitation, MM = Missing Value Source: NWS Daily Summary

Daily Weather History Graph

Daily Weather History Graph

Search for Another Location

Airport or City:

Trip Planner

Search our weather history database for the weather conditions in past years. The results will help you decide how hot, cold, wet, or windy it might be!

Date:

Astronomy

Jan. 24, 2003 Rise Set
Actual Time 7:07 AM CST 5:37 PM CST
Civil Twilight 6:41 AM CST 6:03 PM CST
Nautical Twilight 6:11 AM CST 6:33 PM CST
Astronomical Twilight 5:42 AM CST 7:01 PM CST
Moon No Moon Rise 11:19 AM CST (1/24)
Length of Visible Light 11h 22m
Length of Day
10h 30m
Waning Gibbous, 57% of the Moon is Illuminated
Jan 24
Waning Gibbous
Jan 25
Last Quarter
Feb 1
New
Feb 9
First Quarter
Feb 16
Full

Hourly Weather History & Observations

Time (CST) Temp. Windchill Dew Point Humidity Pressure Visibility Wind Dir Wind Speed Gust Speed Precip Events Conditions
12:53 AM 24.1 °F 15.2 °F 1.0 °F 37% 30.61 in 10.0 mi ENE 8.1 mph - N/A   Clear
1:53 AM 23.0 °F 15.8 °F 7.0 °F 50% 30.61 in 10.0 mi NE 5.8 mph - N/A   Clear
2:53 AM 21.9 °F 11.7 °F 5.0 °F 48% 30.62 in 10.0 mi NE 9.2 mph - N/A   Clear
3:53 AM 21.0 °F 13.4 °F 6.1 °F 53% 30.63 in 10.0 mi NNE 5.8 mph - N/A   Clear
4:53 AM 19.9 °F 13.4 °F 6.1 °F 55% 30.61 in 10.0 mi NNE 4.6 mph - N/A   Clear
5:53 AM 19.9 °F 11.1 °F 6.1 °F 55% 30.61 in 10.0 mi NNE 6.9 mph - N/A   Clear
6:53 AM 19.9 °F 11.1 °F 6.1 °F 55% 30.63 in 10.0 mi NNE 6.9 mph - N/A   Clear
7:53 AM 21.0 °F 10.6 °F 7.0 °F 55% 30.65 in 10.0 mi NNE 9.2 mph - N/A   Clear
8:53 AM 23.0 °F 14.7 °F 7.0 °F 50% 30.66 in 10.0 mi ENE 6.9 mph - N/A   Clear
9:53 AM 26.1 °F 18.4 °F 8.1 °F 47% 30.69 in 10.0 mi Variable 6.9 mph - N/A   Clear
10:53 AM 28.0 °F 21.7 °F 12.9 °F 53% 30.68 in 10.0 mi Variable 5.8 mph - N/A   Clear
11:53 AM 32.0 °F 26.4 °F 15.1 °F 50% 30.63 in 10.0 mi NE 5.8 mph - N/A   Clear
12:53 PM 34.0 °F 28.8 °F 23.0 °F 64% 30.58 in 10.0 mi Variable 5.8 mph - N/A   Clear
1:53 PM 35.1 °F 31.0 °F 25.0 °F 67% 30.54 in 10.0 mi ENE 4.6 mph - N/A   Clear
2:53 PM 37.0 °F 33.3 °F 30.0 °F 76% 30.53 in 10.0 mi Variable 4.6 mph - N/A   Clear
3:53 PM 39.0 °F 36.8 °F 30.0 °F 70% 30.50 in 10.0 mi East 3.5 mph - N/A   Clear
4:53 PM 37.9 °F 32.7 °F 27.0 °F 65% 30.50 in 10.0 mi East 6.9 mph - N/A   Clear
5:53 PM 35.1 °F 28.6 °F 23.0 °F 61% 30.50 in 10.0 mi East 8.1 mph - N/A   Clear
6:53 PM 32.0 °F 27.5 °F 19.0 °F 59% 30.51 in 10.0 mi East 4.6 mph - N/A   Clear
7:53 PM 32.0 °F 25.6 °F 18.0 °F 56% 30.51 in 10.0 mi East 6.9 mph - N/A   Clear
8:53 PM 30.9 °F 26.2 °F 12.9 °F 47% 30.51 in 10.0 mi ENE 4.6 mph - N/A   Clear
9:53 PM 28.9 °F - 8.1 °F 41% 30.51 in 10.0 mi Calm Calm - N/A   Clear
10:53 PM 28.9 °F 25.2 °F 9.0 °F 43% 30.49 in 10.0 mi NNE 3.5 mph - N/A   Clear
11:53 PM 28.9 °F - 12.0 °F 49% 30.49 in 10.0 mi Calm Calm - N/A   Clear